Farmingdale, NY

4:49 AM EDT on May 28, 2018 (GMT -0400)
Republic

Weather History for KFRG - June, 2013

Change the Weather History Date:

Monday, June 24, 2013

  Actual Average Record
Temperature  
Mean Temperature 80 °F -  
Max Temperature 90 °F 78 °F 95 °F (2010)
Min Temperature 71 °F 62 °F 54 °F (2007)
Cooling Degree Days 15    
Growing Degree Days 30 (Base 50)    
Moisture  
Dew Point 69 °F    
Average Humidity 73    
Maximum Humidity 100    
Minimum Humidity 46    
Precipitation  
Precipitation 0.00 in - - ()
Sea Level Pressure  
Sea Level Pressure 30.03 in    
Wind  
Wind Speed 7 mph (WSW)    
Max Wind Speed 14 mph    
Max Gust Speed 21 mph    
Visibility 9 miles    
Events Thunderstorm    
Averages and records for this station are not official NWS values.
T = Trace of Precipitation, MM = Missing Value Source: NWS Daily Summary

Daily Weather History Graph

Daily Weather History Graph

Search for Another Location

Airport or City:

Astronomy

Jun. 24, 2013 Rise Set
Actual Time 5:23 AM EDT 8:28 PM EDT
Civil Twilight 4:49 AM EDT 9:02 PM EDT
Nautical Twilight 4:07 AM EDT 9:44 PM EDT
Astronomical Twilight 3:16 AM EDT 10:35 PM EDT
Moon 9:28 PM EDT (6/24) 6:48 AM EDT (6/24)
Length of Visible Light 16h 12m
Length of Day
15h 05m
Full, 98% of the Moon is Illuminated
Jun 24
Full
Jun 30
Last Quarter
Jul 8
New
Jul 15
First Quarter
Jul 22
Full

Hourly Weather History & Observations

Time (EDT) Temp. Heat Index Dew Point Humidity Pressure Visibility Wind Dir Wind Speed Gust Speed Precip Events Conditions
12:53 AM 71.1 °F - 70.0 °F 96% 30.08 in 8.0 mi SW 4.6 mph - N/A   Overcast
1:53 AM 71.1 °F - 70.0 °F 96% 30.07 in 8.0 mi WSW 5.8 mph - N/A   Overcast
2:53 AM 72.0 °F - 71.1 °F 97% 30.06 in 8.0 mi WSW 8.1 mph - N/A   Overcast
3:53 AM 72.0 °F - 71.1 °F 97% 30.06 in 6.0 mi WSW 8.1 mph - N/A   Overcast
4:53 AM 72.0 °F - 71.1 °F 97% 30.05 in 8.0 mi WSW 5.8 mph - N/A   Mostly Cloudy
5:53 AM 71.1 °F - 71.1 °F 100% 30.05 in 5.0 mi SW 4.6 mph - N/A   Overcast
6:44 AM 71.6 °F - 69.8 °F 94% 30.06 in 2.5 mi SW 5.8 mph - N/A   Overcast
6:53 AM 71.1 °F - 70.0 °F 96% 30.06 in 3.0 mi WSW 4.6 mph - N/A   Overcast
7:23 AM 73.4 °F - 71.6 °F 94% 30.06 in 7.0 mi SW 5.8 mph - N/A   Scattered Clouds
7:53 AM 75.0 °F - 71.1 °F 87% 30.06 in 10.0 mi WSW 6.9 mph - N/A   Clear
8:53 AM 78.1 °F - 71.1 °F 79% 30.06 in 10.0 mi West 8.1 mph - N/A   Clear
9:53 AM 82.0 °F 86.7 °F 72.0 °F 71% 30.05 in 10.0 mi Variable 6.9 mph - N/A   Clear
10:53 AM 87.1 °F 91.3 °F 69.1 °F 55% 30.05 in 10.0 mi Variable 4.6 mph - N/A   Clear
11:53 AM 89.1 °F 93.7 °F 69.1 °F 52% 30.04 in 10.0 mi West 9.2 mph - N/A   Clear
12:53 PM 88.0 °F 95.6 °F 73.0 °F 61% 30.04 in 10.0 mi SSW 9.2 mph - N/A   Clear
1:34 PM 87.8 °F 95.6 °F 73.4 °F 62% 30.02 in 10.0 mi SSW 13.8 mph - N/A Thunderstorm Scattered Clouds
1:53 PM 89.1 °F 96.0 °F 72.0 °F 57% 30.03 in 10.0 mi SW 9.2 mph - N/A Thunderstorm Partly Cloudy
2:48 PM 87.8 °F 90.4 °F 66.2 °F 49% 30.00 in 10.0 mi WSW 12.7 mph - 0.00 in   Partly Cloudy
2:53 PM 88.0 °F 89.6 °F 64.9 °F 46% 29.99 in 10.0 mi WSW 8.1 mph - 0.00 in   Clear
3:53 PM 87.1 °F 91.3 °F 69.1 °F 55% 29.97 in 10.0 mi SSW 13.8 mph - 0.00 in   Clear
4:53 PM 81.0 °F 84.1 °F 69.1 °F 67% 29.96 in 10.0 mi SW 12.7 mph - N/A   Clear
5:53 PM 80.1 °F 82.9 °F 69.1 °F 69% 29.96 in 10.0 mi SW 10.4 mph 20.7 mph N/A   Clear
6:53 PM 82.9 °F 83.3 °F 61.0 °F 47% 29.97 in 10.0 mi SSW 12.7 mph - N/A   Clear
7:53 PM 78.1 °F - 61.0 °F 56% 29.98 in 10.0 mi SW 9.2 mph - N/A   Clear
8:53 PM 78.1 °F - 63.0 °F 60% 30.00 in 10.0 mi North 10.4 mph 19.6 mph N/A   Partly Cloudy
9:53 PM 77.0 °F - 63.0 °F 62% 30.00 in 10.0 mi Calm Calm - N/A   Clear
10:53 PM 75.9 °F - 63.0 °F 64% 30.01 in 10.0 mi WSW 4.6 mph - N/A   Clear
11:53 PM 73.9 °F - 64.0 °F 71% 30.00 in 10.0 mi Calm Calm - N/A   Clear